Content
SEND FEEDBACK

Daily
Averages
Monthly
Summary
United States of America

EARTH CITY, MISSOURI


Home > North America > United States > Missouri
Elevation: 476 feet     Latitude: 38 46N     Longitude: 090 30W

WEATHER
 
SELECT A DAY
Number of Records: 208,302;   Date Range: 1/1/95 - 12/19/14
 
SHARE

PRINT THIS DATA

[ ← Previous Day ]
WEATHER ALMANAC - MARCH 5, 2013
[ Next Day → ]
[ °C ]   °F
Weather ElementAverageHighLow
Temperature34.7 °F41 °F (2:51 am)32 °F (5:51 pm)
Dewpoint28.3 °F33.8 °F (6:00 am)21.9 °F (3:51 pm)
Humidity78.2 %89 % (7:51 am)60 % (1:29 pm)
Barometer29.96 in30.16 in (11:51 pm)29.81 in (2:51 am)
Wind Speed15.7 mph27.6 mph (1:29 pm)
Wind Gust42.6 mph (2:51 pm)
Weather ElementAverage
Visibility4.8 mi
Wind DirectionWNW (293.8 °)

Weather ElementTotal
Precipitation0.55 in
Heating Degree Days28.5 (Base 65)
Averaged from 48 records on March 5, 2013
WEATHER CONDITIONS BREAKOUT
WIND DIRECTION BREAKOUT
WEATHER BY HOUR - MARCH 5, 2013
[ °C ]   °F
Local TimeTemperatureDewpointHumidityBarometerVisibilityWind DirectionWind SpeedGust SpeedPrecipitationEventsConditions
2:51 AM41.0 °F30.9 °F67 %29.81 in10.0 miNNE (30°)4.6 mphOvercast
3:51 AM41.0 °F30.9 °F67 %29.82 in10.0 miNNW (330°)3.5 mphOvercast
4:37 AM39.2 °F30.2 °F70 %29.83 in10.0 miNW (310°)6.9 mphOvercast
4:51 AM39.0 °F32.0 °F76 %29.85 in10.0 miWNW (300°)8.1 mphOvercast
5:51 AM37.0 °F33.1 °F86 %29.88 in5.0 miWNW (300°)13.8 mph0.01 inRainLight Rain
6:00 AM37.4 °F33.8 °F87 %29.87 in4.0 miWNW (300°)12.7 mph21.9 mph0.00 inRainLight Rain
6:10 AM37.4 °F33.8 °F87 %29.87 in4.0 miWNW (300°)13.8 mph0.00 inRain-SnowLight Rain
6:23 AM35.6 °F32.0 °F87 %29.87 in3.0 miWNW (290°)11.5 mph0.01 inRain-SnowLight Rain
6:36 AM35.6 °F32.0 °F87 %29.87 in3.0 miWNW (290°)12.7 mph20.7 mphRain-SnowLight Rain
6:51 AM35.6 °F30.2 °F81 %29.87 in1.5 miWNW (290°)15.0 mphSnowLight Snow
7:04 AM35.6 °F30.2 °F81 %29.88 in2.0 miWNW (290°)15.0 mph0.00 inSnowLight Snow
7:18 AM35.6 °F30.2 °F81 %29.88 in1.5 miWNW (290°)12.7 mph0.00 inSnowLight Snow
7:51 AM34.0 °F30.9 °F89 %29.90 in1.5 miWNW (300°)12.7 mph20.7 mph0.01 inSnowLight Snow
8:04 AM33.8 °F30.2 °F87 %29.89 in1.2 miWNW (300°)12.7 mph23.0 mph0.01 inSnowLight Snow
8:42 AM33.8 °F30.2 °F87 %29.91 in0.8 miWNW (300°)13.8 mph20.7 mph0.03 inSnowLight Snow
8:51 AM34.0 °F30.9 °F89 %29.93 in1.0 miWNW (300°)12.7 mph21.9 mph0.04 inSnowLight Snow
8:59 AM33.8 °F30.2 °F87 %29.91 in0.8 miWNW (300°)11.5 mph0.01 inSnowLight Snow
9:19 AM33.8 °F30.2 °F87 %29.92 in0.5 miWNW (300°)13.8 mph20.7 mph0.05 inFog-SnowSnow
9:47 AM33.8 °F30.2 °F87 %29.91 in0.5 miWNW (300°)12.7 mph0.09 inFog-SnowSnow
9:51 AM34.0 °F30.9 °F89 %29.93 in0.5 miWNW (300°)11.5 mph0.10 inFog-SnowSnow
10:25 AM33.8 °F30.2 °F87 %29.92 in0.8 miWNW (300°)11.5 mph20.7 mph0.05 inSnowLight Snow
10:46 AM33.8 °F30.2 °F87 %29.93 in1.2 miWNW (300°)12.7 mph0.07 inSnowLight Snow
10:51 AM34.0 °F30.9 °F89 %29.94 in1.8 miWNW (300°)13.8 mph0.07 inSnowLight Snow
10:57 AM33.8 °F30.2 °F87 %29.92 in2.5 miNW (310°)16.1 mph0.00 inSnowLight Snow
11:02 AM35.6 °F30.2 °F81 %29.93 in3.0 miNW (310°)13.8 mph0.00 inSnowLight Snow
11:08 AM33.8 °F30.2 °F87 %29.93 in5.0 miNW (310°)17.3 mph23.0 mph0.00 inSnowLight Snow
11:43 AM35.6 °F28.4 °F75 %29.93 in9.0 miWNW (300°)19.6 mph33.4 mph0.00 inSnowLight Snow
11:51 AM35.1 °F28.0 °F76 %29.96 in9.0 miWNW (300°)15.0 mph31.1 mph0.00 inOvercast
12:51 PM35.1 °F27.0 °F72 %29.97 in10.0 miWNW (300°)18.4 mph32.2 mphOvercast
1:29 PM37.4 °F24.8 °F60 %29.95 in10.0 miNW (310°)27.6 mph36.8 mphMostly Cloudy
1:51 PM35.1 °F25.0 °F67 %29.98 in10.0 miWNW (290°)21.9 mph34.5 mphOvercast
2:51 PM34.0 °F23.0 °F64 %30.01 in10.0 miWNW (290°)25.3 mph42.6 mph0.00 inSnowLight Snow
3:51 PM33.1 °F21.9 °F64 %30.03 in9.0 miWNW (290°)25.3 mph38.0 mph0.00 inSnowLight Snow
4:51 PM33.1 °F24.1 °F70 %30.04 in2.0 miWNW (290°)19.6 mph29.9 mph0.00 inSnowLight Snow
4:59 PM33.8 °F24.8 °F70 %30.01 in3.0 miWNW (290°)21.9 mph32.2 mph0.00 inSnowLight Snow
5:14 PM33.8 °F24.8 °F70 %30.01 in4.0 miWNW (290°)18.4 mph27.6 mph0.00 inSnowLight Snow
5:51 PM32.0 °F26.1 °F79 %30.05 in2.0 miWNW (290°)21.9 mph29.9 mph0.00 inSnowLight Snow
6:14 PM32.0 °F26.6 °F80 %30.03 in3.0 miWNW (290°)18.4 mph26.5 mph0.00 inSnowLight Snow
6:33 PM32.0 °F26.6 °F80 %30.03 in7.0 miWNW (290°)20.7 mph33.4 mph0.00 inSnowLight Snow
6:51 PM33.1 °F25.0 °F72 %30.07 in10.0 miWNW (290°)23.0 mph36.8 mph0.00 inMostly Cloudy
7:14 PM33.8 °F24.8 °F70 %30.05 in3.0 miWNW (290°)23.0 mph31.1 mph0.00 inSnowLight Snow
7:39 PM32.0 °F26.6 °F80 %30.05 in5.0 miWNW (300°)15.0 mph25.3 mph0.00 inSnowLight Snow
7:51 PM32.0 °F25.0 °F75 %30.08 in7.0 miWNW (290°)18.4 mph28.8 mph0.00 inSnowLight Snow
8:51 PM33.1 °F24.1 °F70 %30.10 in9.0 miWNW (290°)16.1 mph29.9 mph0.00 inSnowLight Snow
9:51 PM34.0 °F24.1 °F67 %30.13 in9.0 miNW (310°)17.3 mph32.2 mph0.00 inSnowLight Snow
10:35 PM33.8 °F24.8 °F70 %30.12 in4.0 miNW (320°)16.1 mph24.2 mph0.00 inSnowLight Snow
10:51 PM33.1 °F25.0 °F72 %30.15 in6.0 miNW (320°)10.4 mph0.00 inSnowLight Snow
11:51 PM33.1 °F25.0 °F72 %30.16 in6.0 miNW (320°)24.2 mph34.5 mph0.00 inSnowLight Snow
Hourly data recorded from KSTL, located miles away from Earth City, Missouri







STORIES FROM OUR PARTNERS